Regional Weather Roundup
Issued by NWS

Home | Current Version | Previous Version | Text Only | Print | Product List | Glossary On
Versions: 1 2 3 4 5 6 7 8 9 10 11 12 13 14 15 16 17 18 19 20 21 22 23 24 25 26 27 28 29 30 31 32 33 34 35 36 37 38 39 40 41 42 43 44 45 46 47 48 49 50
000
ASUS43 KOAX 300210
RWRNE

WEATHER ROUNDUP FOR NEBRASKA
NATIONAL WEATHER SERVICE OMAHA NE
900 PM CDT SAT APR 29 2017

NOTES: SATELLITE DATA IS BEING USED TO AUGMENT CLOUD COVER ABOVE
       12000 FEET.
       "FAIR" INDICATES FEW OR NO CLOUDS BELOW 12,000 FEET WITH NO
       SIGNIFICANT WEATHER AND/OR OBSTRUCTIONS TO VISIBILITY.

  * THESE STATIONS DO NOT REPORT WEATHER SUCH AS RAIN...SNOW OR FOG.

NEZ001>004-019>022-054>056-300300-
NEBRASKA PANHANDLE

CITY           SKY/WX    TMP DP  RH WIND       PRES   REMARKS
SCOTTSBLUFF    CLOUDY    42  31  64 NW7       30.17S
ALLIANCE       CLOUDY    43  22  43 N10       30.15R
CHADRON        PTCLDY    45  28  51 E5        30.18R
KIMBALL        CLOUDY    38  26  60 NW10      30.16R WCI  31
SIDNEY         CLOUDY    42  20  41 N18       30.14R
$$

NEZ057>060-069>072-079>082-300300-
SOUTHWEST NEBRASKA

CITY           SKY/WX    TMP DP  RH WIND       PRES   REMARKS
NORTH PLATTE   CLOUDY    45  25  45 NE12      30.08S
IMPERIAL       CLOUDY    42  24  49 N14       30.08S
LEXINGTON      CLOUDY    42  32  67 NE20G30   30.06R
MCCOOK         LGT RAIN  39  33  79 N21G30    30.03F WCI  29
OGALLALA       CLOUDY    46  24  42 NE7       30.11S
$$

NEZ005>010-023>029-035>040-094-300300-
NORTH CENTRAL NEBRASKA

CITY           SKY/WX    TMP DP  RH WIND       PRES   REMARKS
VALENTINE      MOCLDY    49  18  29 NE12      30.16R
AINSWORTH      CLOUDY    46  26  45 NE10      30.13R
BROKEN BOW     CLOUDY    44  28  53 NE22G28   30.07S
O`NEILL        CLOUDY    46  18  31 NE9       30.11S
ORD            CLOUDY    45  22  40 NE16G29   30.07R
THEDFORD       CLOUDY    47  23  38 NE16G22   30.12F
$$

NEZ041-046>049-061>064-073>077-083>087-300300-
SOUTH CENTRAL NEBRASKA

CITY           SKY/WX    TMP DP  RH WIND       PRES   REMARKS
GRAND ISLAND   CLOUDY    41  37  86 N20       30.03R
AURORA         CLOUDY    41  37  87 NE25G31   30.01R
HASTINGS       CLOUDY    40  36  86 N21G30    30.00R WCI  30
HEBRON         LGT RAIN  40  40  97 NE22G28   29.97R WCI  31
HOLDREGE       LGT RAIN  39  36  89 N25G33    30.01R WCI  27
KEARNEY *      CLOUDY    39  34  81 N25G31    30.03R WCI  28
YORK           CLOUDY    39  39 100 NE30G36   30.01R WCI  27
$$

NEZ011>018-030>034-042>045-300300-
NORTHEAST NEBRASKA

CITY           SKY/WX    TMP DP  RH WIND       PRES   REMARKS
NORFOLK        CLOUDY    46  26  45 NE14G25   30.06R
ALBION         CLOUDY    46  28  49 N8        30.07R
BLAIR          CLOUDY    43  36  77 NE21G32   30.01R
FREMONT        CLOUDY    40  39  97 N12G23    30.05S WCI  33
TEKAMAH        LGT RAIN  41  38  89 N20       30.07R FOG
WAYNE          CLOUDY    47  29  50 NE16      30.08S
$$

NEZ050>053-065>068-078-088>093-300300-
SOUTHEAST NEBRASKA

CITY           SKY/WX    TMP DP  RH WIND       PRES   REMARKS
LINCOLN        LGT RAIN  41  40  96 NE23G30   30.00R FOG
OMAHA EPPLEY   LGT RAIN  42  37  82 N18       30.02R
BEATRICE       LGT RAIN  42  40  95 NE21G30   29.96R
FALLS CITY     LGT RAIN  42  41  96 NE13      29.93R
NEBRASKA CITY  LGT RAIN  40  40 100 NE22      29.95S WCI  30
PLATTSMOUTH    LGT RAIN  41  38  89 NE15G24   29.99R
$$

NEZ044-045-051>053-067-300300-
OMAHA AREA

CITY           SKY/WX    TMP DP  RH WIND       PRES   REMARKS
OMAHA EPPLEY   LGT RAIN  42  37  82 N18       30.02R
BLAIR          CLOUDY    43  36  77 NE21G32   30.01R
FREMONT        CLOUDY    40  39  97 N12G23    30.05S WCI  33
MILLARD        DRIZZLE   43  41  91 NE9G17    30.02R
OFFUTT AFB     LGT RAIN  41  38  89 NE18G28   30.01R FOG
PLATTSMOUTH    LGT RAIN  41  38  89 NE15G24   29.99R
WAHOO          CLOUDY    41  38  91 N24       30.02R
$$



USA.gov is the U.S. government's official web portal to all federal, state and local government web resources and services.